DW8965 Weather Reports


Display with metric or nautical units.
time (UTC)temp
F
wind
direction
speed
MPH
gust
MPH
rain 1hr
in
rain 24hr
in
rain mn
in
humidity
%
barometer
mb
20180523235957 67 0 0.0 0.0 0.00 0.00 0.00 45 1019.0
20180523234957 67 0 0.0 0.0 0.00 0.00 0.00 45 1018.9
20180523233957 67 0 0.0 0.0 0.00 0.00 0.00 46 1018.8
20180523232957 67 0 0.0 0.0 0.00 0.00 0.00 47 1018.7
20180523231957 67 0 0.0 0.0 0.00 0.00 0.00 49 1018.9
20180523230957 66 0 0.0 0.0 0.00 0.00 0.00 53 1018.9
20180523225958 66 0 0.0 0.0 0.00 0.00 0.00 57 1018.8
20180523224957 65 0 0.0 0.0 0.00 0.00 0.00 63 1018.7
20180523223957 64 0 0.0 0.0 0.00 0.00 0.00 72 1018.7
20180523222957 64 0 0.0 0.0 0.00 0.00 0.00 79 1018.8
20180523221957 64 0 0.0 0.0 0.00 0.00 0.00 84 1018.9
20180523220957 64 0 0.0 0.0 0.00 0.00 0.00 89 1018.8
20180523220046 63 0 0.0 0.0 0.00 0.00 0.00 93 1018.9
20180523214957 64 0 0.0 0.0 0.00 0.00 0.00 93 1018.9
20180523213958 64 0 0.0 0.0 0.00 0.00 0.00 92 1019.1
20180523212957 64 0 0.0 0.0 0.00 0.00 0.00 91 1019.0
20180523211957 64 0 0.0 0.0 0.00 0.00 0.00 90 1019.0
20180523210957 64 0 0.0 0.0 0.00 0.00 0.00 89 1019.0
20180523205957 64 0 0.0 0.0 0.00 0.00 0.00 89 1018.9
20180523204957 64 0 0.0 0.0 0.00 0.00 0.00 87 1019.2
20180523203957 64 0 0.0 0.0 0.00 0.00 0.00 87 1019.3
20180523202958 65 0 0.0 0.0 0.00 0.00 0.00 87 1019.1
20180523201958 65 0 0.0 0.0 0.00 0.00 0.00 86 1019.3
20180523200958 65 0 0.0 0.0 0.00 0.00 0.00 86 1019.3
20180523195957 65 0 0.0 0.0 0.00 0.00 0.00 86 1019.3
20180523194958 65 0 0.0 0.0 0.00 0.00 0.00 85 1019.2
20180523193957 65 0 0.0 0.0 0.00 0.00 0.00 84 1019.1
20180523192957 65 0 0.0 0.0 0.00 0.00 0.00 83 1019.0
20180523191957 65 0 0.0 0.0 0.00 0.00 0.00 80 1018.9
20180523190957 66 0 0.0 0.0 0.00 0.00 0.00 77 1019.1
20180523185957 66 0 0.0 0.0 0.00 0.02 0.00 75 1018.9
20180523184958 67 0 0.0 0.0 0.00 0.02 0.00 73 1018.8
20180523183958 68 0 0.0 0.0 0.00 0.02 0.00 70 1018.7
20180523182957 68 0 0.0 0.0 0.00 0.02 0.00 68 1018.5
20180523181957 68 0 0.0 0.0 0.00 0.02 0.00 65 1018.4
20180523180957 69 0 0.0 0.0 0.00 0.02 0.00 63 1018.3
20180523175957 69 0 0.0 0.0 0.00 0.02 0.00 61 1018.4
20180523174957 70 0 0.0 0.0 0.00 0.02 0.00 59 1018.3
20180523173957 70 0 0.0 0.0 0.00 0.02 0.00 57 1018.4
20180523172958 70 0 0.0 0.0 0.00 0.02 0.00 55 1018.3
20180523171957 71 0 0.0 0.0 0.00 0.02 0.00 53 1018.4
20180523170957 71 0 0.0 0.0 0.00 0.02 0.00 49 1018.3
20180523165957 72 0 0.0 0.0 0.00 0.02 0.00 47 1018.4
20180523164957 72 0 0.0 0.0 0.00 0.02 0.00 42 1018.3
20180523163957 73 0 0.0 0.0 0.00 0.04 0.00 41 1018.0
20180523162957 73 0 0.0 0.0 0.00 0.04 0.00 41 1018.1
20180523161957 73 0 0.0 0.0 0.00 0.06 0.00 41 1018.1
20180523160958 73 0 0.0 0.0 0.00 0.06 0.00 41 1018.3
20180523155958 73 0 0.0 0.0 0.00 0.06 0.00 41 1018.2
20180523154957 73 0 0.0 0.0 0.00 0.06 0.00 40 1018.1
20180523153958 73 0 0.0 0.0 0.00 0.06 0.00 41 1018.2
20180523152957 73 0 0.0 0.0 0.00 0.06 0.00 41 1018.1
20180523151957 73 0 0.0 0.0 0.00 0.06 0.00 42 1018.3
20180523150957 73 0 0.0 0.0 0.00 0.06 0.00 42 1018.3
20180523145958 73 0 0.0 0.0 0.00 0.06 0.00 42 1018.0
20180523144958 73 0 0.0 0.0 0.00 0.06 0.00 41 1017.9
20180523143958 74 0 0.0 0.0 0.00 0.06 0.00 39 1018.0
20180523142958 74 0 0.0 0.0 0.00 0.06 0.00 40 1018.0
20180523141957 74 0 0.0 0.0 0.00 0.06 0.00 40 1018.1
20180523140957 74 0 0.0 0.0 0.00 0.06 0.00 40 1018.1
20180523135957 74 0 0.0 0.0 0.00 0.06 0.00 40 1017.9
20180523134957 74 0 0.0 0.0 0.00 0.06 0.00 41 1018.0
20180523133957 75 0 0.0 0.0 0.00 0.06 0.00 41 1018.0
20180523132958 76 0 0.0 0.0 0.00 0.06 0.00 40 1018.0
20180523131959 76 0 0.0 0.0 0.00 0.06 0.00 39 1017.9
20180523130958 77 0 0.0 0.0 0.00 0.06 0.00 39 1018.0
20180523125958 77 0 0.0 0.0 0.00 0.06 0.00 40 1018.0
20180523124957 77 0 0.0 0.0 0.00 0.06 0.00 39 1018.1
20180523123957 76 0 0.0 0.0 0.00 0.06 0.00 38 1018.0
20180523122957 76 0 0.0 0.0 0.00 0.06 0.00 39 1018.1
20180523121957 76 0 0.0 0.0 0.00 0.06 0.00 40 1018.1
20180523120957 76 0 0.0 0.0 0.00 0.06 0.00 41 1018.1
20180523115957 75 0 0.0 0.0 0.00 0.06 0.00 45 1018.2
20180523114958 74 0 0.0 0.0 0.00 0.06 0.00 46 1018.3
20180523113958 73 0 0.0 0.0 0.00 0.06 0.00 47 1018.4
20180523112958 73 0 0.0 0.0 0.00 0.06 0.00 47 1018.3
20180523111958 73 0 0.0 0.0 0.00 0.06 0.00 46 1018.4
20180523110957 73 0 0.0 0.0 0.00 0.06 0.00 49 1018.4
20180523105957 72 0 0.0 0.0 0.00 0.06 0.00 49 1018.3
20180523104957 72 0 0.0 0.0 0.00 0.06 0.00 46 1018.4
20180523103957 72 0 0.0 0.0 0.00 0.06 0.00 47 1018.5
20180523102957 72 0 0.0 0.0 0.00 0.06 0.00 51 1018.5
20180523101957 72 0 0.0 0.0 0.00 0.06 0.00 54 1018.6
20180523100957 72 0 0.0 0.0 0.00 0.06 0.00 54 1018.4
20180523095958 71 0 0.0 0.0 0.00 0.06 0.00 55 1018.3
20180523094958 71 0 0.0 0.0 0.00 0.06 0.00 58 1018.3
20180523093957 70 0 0.0 0.0 0.00 0.06 0.00 60 1018.3
20180523092957 69 0 0.0 0.0 0.00 0.06 0.00 60 1018.4
20180523091957 69 0 0.0 0.0 0.00 0.06 0.00 60 1018.2
20180523090957 69 0 0.0 0.0 0.00 0.06 0.00 63 1018.1
20180523085957 69 0 0.0 0.0 0.00 0.06 0.00 64 1018.0
20180523084957 69 0 0.0 0.0 0.00 0.06 0.00 65 1018.0
20180523083958 68 0 0.0 0.0 0.00 0.06 0.00 65 1018.0
20180523082958 68 0 0.0 0.0 0.00 0.06 0.00 68 1017.9
20180523081958 67 0 0.0 0.0 0.00 0.06 0.00 71 1017.9
20180523080957 67 0 0.0 0.0 0.00 0.06 0.00 74 1017.8
20180523075957 67 0 0.0 0.0 0.00 0.06 0.00 75 1017.7
20180523074957 66 0 0.0 0.0 0.00 0.06 0.00 81 1017.9
20180523073957 65 0 0.0 0.0 0.00 0.06 0.00 87 1018.0
20180523072957 64 0 0.0 0.0 0.00 0.06 0.00 92 1017.9
20180523071957 63 0 0.0 0.0 0.00 0.06 0.00 99 1017.9
20180523070958 62 0 0.0 0.0 0.00 0.06 0.00 99 1017.9
20180523065958 61 0 0.0 0.0 0.00 0.06 0.00 99 1017.6
20180523064958 60 0 0.0 0.0 0.00 0.06 0.00 99 1017.7
20180523063958 60 0 0.0 0.0 0.00 0.06 0.00 99 1017.7
20180523062957 59 0 0.0 0.0 0.00 0.06 0.00 99 1017.5
20180523061957 59 0 0.0 0.0 0.00 0.06 0.00 99 1017.4
20180523060957 58 0 0.0 0.0 0.00 0.06 0.00 99 1017.2
20180523055957 58 0 0.0 0.0 0.00 0.06 0.00 99 1017.0
20180523054957 58 0 0.0 0.0 0.00 0.06 0.00 99 1016.9
20180523053958 57 0 0.0 0.0 0.00 0.06 0.00 99 1016.8
20180523052958 57 0 0.0 0.0 0.00 0.06 0.00 99 1016.7
20180523051958 57 0 0.0 0.0 0.00 0.06 0.00 99 1016.7
20180523050957 57 0 0.0 0.0 0.00 0.06 0.00 99 1016.6
20180523045957 57 0 0.0 0.0 0.00 0.06 0.00 99 1016.5
20180523044957 57 0 0.0 0.0 0.00 0.06 0.00 99 1016.3
20180523043957 56 0 0.0 0.0 0.00 0.06 0.00 99 1016.2
20180523042957 56 0 0.0 0.0 0.00 0.06 0.00 99 1016.1
20180523041958 56 0 0.0 0.0 0.00 0.06 0.00 99 1016.0
20180523040958 57 0 0.0 0.0 0.00 0.06 0.00 99 1015.8
20180523035958 57 0 0.0 0.0 0.00 0.06 0.00 99 1015.8
20180523034958 57 0 0.0 0.0 0.00 0.06 0.00 99 1015.7
20180523033957 57 0 0.0 0.0 0.00 0.06 0.00 99 1015.6
20180523032957 57 0 0.0 0.0 0.00 0.06 0.00 99 1015.5
20180523031957 57 0 0.0 0.0 0.00 0.06 0.00 99 1015.5
20180523030957 58 0 0.0 0.0 0.00 0.06 0.00 99 1015.5
20180523025957 58 0 0.0 0.0 0.00 0.06 0.00 99 1015.4
20180523024958 58 0 0.0 0.0 0.00 0.06 0.00 99 1015.2
20180523023958 58 0 0.0 0.0 0.00 0.06 0.00 99 1015.2
20180523022958 58 0 0.0 0.0 0.00 0.06 0.00 99 1015.2
20180523021957 58 0 0.0 0.0 0.00 0.06 0.00 99 1015.2
20180523020957 58 0 0.0 0.0 0.00 0.06 0.00 99 1015.3
20180523015957 58 0 0.0 0.0 0.00 0.06 0.00 99 1015.2
20180523014957 58 0 0.0 0.0 0.00 0.06 0.00 99 1015.1
20180523013958 58 0 0.0 0.0 0.00 0.06 0.00 99 1014.9
20180523012958 58 0 0.0 0.0 0.00 0.06 0.00 99 1014.8
20180523011958 58 0 0.0 0.0 0.00 0.06 0.00 99 1014.8
20180523010957 58 0 0.0 0.0 0.00 0.06 0.00 99 1014.8
20180523005957 58 0 0.0 0.0 0.00 0.06 0.00 99 1014.8
20180523004957 58 0 0.0 0.0 0.00 0.06 0.00 99 1014.8
20180523003957 58 0 0.0 0.0 0.00 0.06 0.00 99 1014.9
20180523002957 58 0 0.0 0.0 0.00 0.06 0.00 99 1014.8
20180523001957 58 0 0.0 0.0 0.00 0.06 0.00 99 1014.8
20180523000958 58 0 0.0 0.0 0.00 0.06 0.00 99 1014.8